#timestamp,LO_Frequency,Hit,StdDev 
1509840015.2,286046990.8,N
1509840035.0,286046991.6,N
1509840035.9,286046991.6,N
1509840055.8,286046988.1,N
1509840075.6,286046985.7,N
1509840095.5,286046986.3,N
1509840115.3,286046986.4,N
1509840135.1,286046984.6,N
1509840155.9,286046982.7,N
1509840175.7,286046982.7,N
1509840195.5,286046982.7,N
1509840215.4,286046982.9,N
1509840235.2,286046980.9,N
1509840255.0,286046981.9,N
1509840256.0,286046981.9,N
1509840275.8,286046982.0,N
1509840295.6,286046979.8,N
1509840315.5,286046979.4,N
1509840335.3,286046977.3,N
1509840355.1,286046977.9,N
1509840375.9,286046979.6,N
1509840395.7,286046979.7,N
1509840415.5,286046979.3,N
1509840435.4,286046979.5,N
1509840455.2,286046981.8,N
1509840475.1,286046981.4,N
1509840476.0,286046981.4,N
1509840495.8,286046978.9,Y
1509840515.6,286046996.3,P
1509840535.5,286046995.9,N
1509840555.3,286046995.2,N
1509840575.2,286046997.9,N
1509840625.9,286046996.4,E
1509840635.8,286047011.9,N
1509840655.7,286047000.8,P
1509840675.5,286047000.2,N
1509840695.3,286047000.5,N
1509840715.2,286047000.6,N
1509840735.0,286047001.0,N
1509840735.9,286047001.0,N
1509840755.8,286047000.4,N
1509840775.6,286047000.0,N
1509840795.4,286047002.6,N
1509840815.3,286046999.7,N
1509840835.1,286047001.2,N
1509840855.9,286047000.7,N
1509840875.7,286047000.6,N
1509840895.5,286046998.1,N
1509840915.4,286046998.1,N
1509840935.2,286047000.0,N
1509840955.0,286047000.4,N
1509840955.9,286047000.4,N
1509840975.8,286047000.3,N
1509840995.6,286046998.1,N
1509841015.5,286047001.2,N
1509841035.3,286047000.5,N
1509841055.1,286047000.0,N
1509841075.9,286047001.4,N
1509841095.7,286047004.4,N
1509841115.5,286047001.7,N
1509841135.4,286047001.8,N
1509841155.2,286047001.3,N
1509841175.1,286047003.4,N
1509841176.0,286047003.4,N
1509841195.8,286047003.6,N
1509841215.6,286047003.1,N
1509841235.5,286047005.6,Y
1509841255.3,286047001.8,P
1509841275.1,286047002.1,P
1509841295.9,286047004.4,P
1509841315.7,286047001.5,N
1509841335.6,286047000.2,N
1509841355.4,286047001.0,N
1509841375.2,286046999.8,N
1509841395.1,286047011.9,Y
1509841396.0,286047002.0,P
1509841415.8,286047000.3,N
1509841435.7,286047000.7,N
1509841455.5,286046998.1,N
1509841475.3,286047000.6,N
1509841495.2,286047000.6,N
1509841515.9,286047001.2,N
1509841535.7,286046998.9,N
1509841555.6,286046999.2,N
1509841575.4,286046999.3,N
1509841595.2,286046999.6,N
1509841615.1,286046998.8,N
1509841616.0,286046998.8,N
1509841635.8,286046998.9,N
1509841655.7,286046998.9,N
1509841675.5,286046997.1,N
1509841695.3,286046999.6,N
1509841715.2,286046996.7,N
1509841735.0,286046999.2,N
1509841735.9,286046999.2,N
1509841755.8,286046997.0,N
1509841775.6,286046995.4,Y
1509841795.4,286046997.3,P
1509841815.3,286046999.6,N
1509841835.1,286046996.5,P
1509841855.8,286046998.8,N
1509841875.7,286046998.8,N
1509841895.5,286047001.2,N
1509841915.4,286047002.3,N
1509841935.2,286047002.7,N
1509841985.1,286047001.7,E
1509841995.9,286047002.3,N
1509842015.7,286046998.6,P
1509842035.6,286047000.7,N
1509842055.4,286047000.8,N
1509842075.2,286046998.3,N
1509842095.1,286046999.5,N
1509842096.0,286046999.5,N
1509842115.8,286046998.8,N
1509842135.7,286046998.8,N
1509842155.5,286046999.3,N
1509842175.3,286046998.7,N
1509842195.2,286046996.9,N
1509842215.0,286046999.1,N
1509842215.9,286046999.1,N
1509842235.8,286047001.0,N
1509842255.6,286046999.5,N
1509842275.4,286046998.4,N
1509842295.3,286046999.1,N
1509842315.1,286047000.4,N
1509842335.8,286047001.0,N
1509842355.7,286046999.1,N
1509842375.5,286046999.6,N
1509842395.4,286046996.5,Y
1509842415.2,286046998.7,P
1509842435.0,286047000.9,N
1509842435.9,286047000.9,N
1509842455.8,286047000.8,N
1509842475.6,286046998.2,N
1509842495.5,286046998.4,N
1509842515.3,286047001.1,N
1509842535.1,286046998.6,N
1509842555.9,286046998.4,N
1509842575.7,286046998.7,N
1509842595.5,286046999.6,N
1509842615.4,286046998.6,N
1509842665.2,286046998.2,E
1509842675.2,286047000.5,N
1509842695.0,286047001.6,P
1509842695.9,286047001.6,N
1509842715.8,286047001.9,Y
1509842735.6,286047002.6,P
1509842755.4,286047000.1,N
1509842775.3,286047000.7,N
1509842795.1,286046998.7,N
1509842815.8,286046998.6,N
1509842835.7,286047001.1,N
1509842855.5,286046999.9,N
1509842875.4,286047002.4,N
1509842895.2,286047002.4,N
1509842915.0,286047001.9,N
1509842915.9,286047001.9,N
1509842935.8,286047002.8,N
1509842955.6,286047005.6,Y
1509842975.4,286047002.0,P
1509842995.3,286047002.5,P
1509843015.1,286047002.8,P
1509843035.9,286046998.3,N
1509843055.7,286046998.8,N
1509843075.5,286046998.6,N
1509843095.4,286047000.7,N
1509843115.2,286047002.3,N
1509843135.1,286047002.6,N
1509843136.0,286047002.6,N
1509843155.8,286047004.2,N
1509843175.6,286047002.3,N
1509843195.5,286047000.3,N
1509843215.3,286046998.1,N
1509843235.1,286047000.0,N
1509843255.9,286047000.7,N
1509843275.7,286047000.7,N
1509843295.6,286047001.1,N
1509843315.4,286047000.3,N
1509843335.2,286047002.7,N
1509843355.1,286047002.8,N
1509843356.0,286047002.8,N
1509843375.8,286047000.4,N
1509843395.6,286046998.7,N
1509843415.5,286046998.2,N
1509843435.3,286046999.7,N
1509843485.2,286047000.8,E
1509843495.1,286047000.6,N
1509843515.8,286047000.9,P
1509843535.7,286047002.7,P
1509843555.5,286047000.1,N
1509843575.4,286047000.2,N
1509843595.2,286047000.1,N
